Time,TemperatureF,DewpointF,PressureIn,WindDirection,WindDirectionDegrees,WindSpeedMPH,WindSpeedGustMPH,Humidity,HourlyPrecipIn,Conditions,Clouds,dailyrainin,SoftwareType,DateUTC
2013-09-21 00:00:00,77.1,55.3,29.70,SW,224,3.0,5.0,47,0.00,,,0.00,VWS V14.01,2013-09-21 07:00:00,
2013-09-21 00:03:00,77.1,55.3,29.70,West,275,2.0,3.0,47,0.00,,,0.00,VWS V14.01,2013-09-21 07:03:00,
2013-09-21 00:05:00,77.0,55.2,29.70,West,261,0.0,3.0,47,0.00,,,0.00,VWS V14.01,2013-09-21 07:05:00,
2013-09-21 00:08:00,77.0,55.2,29.70,SW,234,0.0,4.0,47,0.00,,,0.00,VWS V14.01,2013-09-21 07:08:00,
2013-09-21 00:10:00,77.0,55.2,29.70,SW,225,5.0,6.0,47,0.00,,,0.00,VWS V14.01,2013-09-21 07:10:00,
2013-09-21 00:13:00,77.0,55.2,29.70,WSW,254,0.0,5.0,47,0.00,,,0.00,VWS V14.01,2013-09-21 07:13:00,
2013-09-21 00:15:00,76.9,55.2,29.70,WSW,252,0.0,5.0,47,0.00,,,0.00,VWS V14.01,2013-09-21 07:15:00,
2013-09-21 00:18:00,76.9,55.2,29.70,WSW,250,0.0,4.0,47,0.00,,,0.00,VWS V14.01,2013-09-21 07:18:00,
2013-09-21 00:20:00,76.9,55.2,29.70,WSW,257,0.0,4.0,47,0.00,,,0.00,VWS V14.01,2013-09-21 07:20:00,
2013-09-21 00:23:00,76.9,55.2,29.70,WNW,287,0.0,5.0,47,0.00,,,0.00,VWS V14.01,2013-09-21 07:23:00,
2013-09-21 00:25:00,76.9,55.2,29.70,WNW,282,0.0,5.0,47,0.00,,,0.00,VWS V14.01,2013-09-21 07:25:00,
2013-09-21 00:28:00,76.8,55.1,29.70,West,265,1.0,5.0,47,0.00,,,0.00,VWS V14.01,2013-09-21 07:28:00,
2013-09-21 00:30:00,76.8,54.5,29.70,West,263,0.0,5.0,46,0.00,,,0.00,VWS V14.01,2013-09-21 07:30:00,
2013-09-21 00:33:00,76.8,54.5,29.70,WSW,251,0.0,5.0,46,0.00,,,0.00,VWS V14.01,2013-09-21 07:33:00,
2013-09-21 00:35:00,76.8,54.5,29.70,West,275,2.0,5.0,46,0.00,,,0.00,VWS V14.01,2013-09-21 07:35:00,
2013-09-21 00:38:00,76.9,54.6,29.70,WNW,290,2.0,4.0,46,0.00,,,0.00,VWS V14.01,2013-09-21 07:38:00,
2013-09-21 00:40:00,76.9,54.6,29.70,WNW,289,0.0,4.0,46,0.00,,,0.00,VWS V14.01,2013-09-21 07:40:00,
2013-09-21 00:43:00,76.7,54.4,29.70,WNW,288,1.0,4.0,46,0.00,,,0.00,VWS V14.01,2013-09-21 07:43:00,
2013-09-21 00:45:00,76.7,54.4,29.70,WNW,288,0.0,4.0,46,0.00,,,0.00,VWS V14.01,2013-09-21 07:45:00,
2013-09-21 00:48:00,76.5,54.2,29.70,WNW,288,0.0,2.0,46,0.00,,,0.00,VWS V14.01,2013-09-21 07:48:00,
2013-09-21 00:50:00,76.5,54.2,29.70,WNW,286,1.0,2.0,46,0.00,,,0.00,VWS V14.01,2013-09-21 07:50:00,
2013-09-21 00:53:00,76.5,54.2,29.70,WNW,286,1.0,2.0,46,0.00,,,0.00,VWS V14.01,2013-09-21 07:53:00,
2013-09-21 00:55:00,76.5,54.2,29.70,WNW,286,0.0,3.0,46,0.00,,,0.00,VWS V14.01,2013-09-21 07:55:00,
2013-09-21 00:58:00,76.5,54.2,29.70,West,269,0.0,4.0,46,0.00,,,0.00,VWS V14.01,2013-09-21 07:58:00,
2013-09-21 01:00:00,76.5,54.2,29.70,West,269,0.0,4.0,46,0.00,,,0.00,VWS V14.01,2013-09-21 08:00:00,
2013-09-21 01:03:00,76.3,54.6,29.70,West,269,0.0,2.0,47,0.00,,,0.00,VWS V14.01,2013-09-21 08:03:00,
2013-09-21 01:05:00,76.2,54.5,29.70,West,266,0.0,3.0,47,0.00,,,0.00,VWS V14.01,2013-09-21 08:05:00,
2013-09-21 01:13:00,76.4,54.7,29.70,West,280,0.0,5.0,47,0.00,,,0.00,VWS V14.01,2013-09-21 08:13:00,
2013-09-21 01:15:00,76.4,54.7,29.70,WNW,293,2.0,5.0,47,0.00,,,0.00,VWS V14.01,2013-09-21 08:15:00,
2013-09-21 01:35:00,76.1,54.4,29.69,West,271,0.0,4.0,47,0.00,,,0.00,VWS V14.01,2013-09-21 08:35:00,
2013-09-21 01:38:00,76.0,54.3,29.69,WNW,298,2.0,5.0,47,0.00,,,0.00,VWS V14.01,2013-09-21 08:38:00,
2013-09-21 01:40:00,76.1,54.4,29.69,WNW,284,1.0,5.0,47,0.00,,,0.00,VWS V14.01,2013-09-21 08:40:00,
2013-09-21 01:41:00,76.2,54.5,29.70,West,269,2.0,4.0,47,0.00,,,0.00,VWS V14.01,2013-09-21 08:41:00,
2013-09-21 01:51:00,76.4,54.7,29.70,West,275,2.0,4.0,47,0.00,,,0.00,VWS V14.01,2013-09-21 08:51:00,
2013-09-21 01:53:00,75.8,54.7,29.69,West,273,1.0,4.0,48,0.00,,,0.00,VWS V14.01,2013-09-21 08:53:00,
2013-09-21 01:56:00,76.4,54.7,29.69,West,278,1.0,3.0,47,0.00,,,0.00,VWS V14.01,2013-09-21 08:56:00,
2013-09-21 01:58:00,75.5,54.5,29.69,West,267,0.0,3.0,48,0.00,,,0.00,VWS V14.01,2013-09-21 08:58:00,
2013-09-21 02:01:00,76.3,54.6,29.69,West,278,5.0,5.0,47,0.00,,,0.00,VWS V14.01,2013-09-21 09:01:00,
2013-09-21 02:03:00,75.3,54.3,29.69,West,261,0.0,1.0,48,0.00,,,0.00,VWS V14.01,2013-09-21 09:03:00,
2013-09-21 02:05:00,75.3,54.3,29.69,West,261,0.0,1.0,48,0.00,,,0.00,VWS V14.01,2013-09-21 09:05:00,
2013-09-21 02:06:00,76.2,54.5,29.69,West,271,0.0,4.0,47,0.00,,,0.00,VWS V14.01,2013-09-21 09:06:00,
2013-09-21 02:08:00,75.3,54.3,29.69,West,269,2.0,4.0,48,0.00,,,0.00,VWS V14.01,2013-09-21 09:08:00,
2013-09-21 02:10:00,75.3,54.3,29.69,WSW,258,1.0,4.0,48,0.00,,,0.00,VWS V14.01,2013-09-21 09:10:00,
2013-09-21 02:13:00,75.4,54.4,29.69,West,269,1.0,5.0,48,0.00,,,0.00,VWS V14.01,2013-09-21 09:13:00,
2013-09-21 02:15:00,75.4,54.4,29.69,SW,225,3.0,5.0,48,0.00,,,0.00,VWS V14.01,2013-09-21 09:15:00,
2013-09-21 02:16:00,76.1,54.4,29.69,West,269,1.0,3.0,47,0.00,,,0.00,VWS V14.01,2013-09-21 09:16:00,
2013-09-21 02:18:00,75.3,54.3,29.69,West,278,1.0,4.0,48,0.00,,,0.00,VWS V14.01,2013-09-21 09:18:00,
2013-09-21 02:20:00,75.3,54.3,29.69,SW,229,4.0,7.0,48,0.00,,,0.00,VWS V14.01,2013-09-21 09:20:00,
2013-09-21 02:21:00,75.9,54.2,29.69,West,263,0.0,4.0,47,0.00,,,0.00,VWS V14.01,2013-09-21 09:21:00,
2013-09-21 02:23:00,75.2,54.8,29.69,West,269,0.0,4.0,49,0.00,,,0.00,VWS V14.01,2013-09-21 09:23:00,
2013-09-21 02:25:00,75.1,54.7,29.69,West,267,3.0,4.0,49,0.00,,,0.00,VWS V14.01,2013-09-21 09:25:00,
2013-09-21 02:28:00,75.7,54.6,29.69,West,273,0.0,4.0,48,0.00,,,0.00,VWS V14.01,2013-09-21 09:28:00,
2013-09-21 02:30:00,74.9,54.5,29.69,West,267,0.0,4.0,49,0.00,,,0.00,VWS V14.01,2013-09-21 09:30:00,
2013-09-21 02:33:00,75.4,54.4,29.69,West,265,0.0,3.0,48,0.00,,,0.00,VWS V14.01,2013-09-21 09:33:00,
2013-09-21 02:35:00,74.7,54.3,29.69,SW,236,1.0,5.0,49,0.00,,,0.00,VWS V14.01,2013-09-21 09:35:00,
2013-09-21 02:38:00,74.6,54.8,29.69,WSW,238,2.0,5.0,50,0.00,,,0.00,VWS V14.01,2013-09-21 09:38:00,
2013-09-21 02:40:00,74.5,54.7,29.70,SW,226,0.0,5.0,50,0.00,,,0.00,VWS V14.01,2013-09-21 09:40:00,
2013-09-21 02:43:00,74.4,54.6,29.70,SW,233,1.0,5.0,50,0.00,,,0.00,VWS V14.01,2013-09-21 09:43:00,
2013-09-21 02:45:00,74.4,54.6,29.70,WSW,245,2.0,5.0,50,0.00,,,0.00,VWS V14.01,2013-09-21 09:45:00,
2013-09-21 02:48:00,74.2,54.4,29.69,WSW,254,2.0,6.0,50,0.00,,,0.00,VWS V14.01,2013-09-21 09:48:00,
2013-09-21 02:50:00,74.2,54.4,29.70,West,269,0.0,6.0,50,0.00,,,0.00,VWS V14.01,2013-09-21 09:50:00,
2013-09-21 02:53:00,74.2,54.4,29.69,West,268,0.0,5.0,50,0.00,,,0.00,VWS V14.01,2013-09-21 09:53:00,
2013-09-21 02:55:00,74.2,54.4,29.70,West,275,1.0,5.0,50,0.00,,,0.00,VWS V14.01,2013-09-21 09:55:00,
2013-09-21 02:58:00,74.1,54.8,29.69,West,273,0.0,3.0,51,0.00,,,0.00,VWS V14.01,2013-09-21 09:58:00,
2013-09-21 03:00:00,74.0,54.7,29.70,West,273,0.0,3.0,51,0.00,,,0.00,VWS V14.01,2013-09-21 10:00:00,
2013-09-21 03:03:00,73.9,54.7,29.70,West,273,0.0,1.0,51,0.00,,,0.00,VWS V14.01,2013-09-21 10:03:00,
2013-09-21 03:05:00,73.9,54.7,29.69,West,273,0.0,2.0,51,0.00,,,0.00,VWS V14.01,2013-09-21 10:05:00,
2013-09-21 03:10:00,73.7,55.0,29.70,West,273,0.0,2.0,52,0.00,,,0.00,VWS V14.01,2013-09-21 10:10:00,
2013-09-21 03:13:00,73.8,55.1,29.70,West,279,0.0,3.0,52,0.00,,,0.00,VWS V14.01,2013-09-21 10:13:00,
2013-09-21 03:15:00,73.9,54.7,29.70,West,279,0.0,3.0,51,0.00,,,0.00,VWS V14.01,2013-09-21 10:15:00,
2013-09-21 03:18:00,73.9,54.7,29.70,WNW,286,0.0,2.0,51,0.00,,,0.00,VWS V14.01,2013-09-21 10:18:00,
2013-09-21 03:20:00,73.9,55.2,29.70,WNW,286,0.0,2.0,52,0.00,,,0.00,VWS V14.01,2013-09-21 10:20:00,
2013-09-21 03:23:00,73.6,54.9,29.70,WNW,286,1.0,1.0,52,0.00,,,0.00,VWS V14.01,2013-09-21 10:23:00,
2013-09-21 03:25:00,73.5,54.8,29.70,WNW,286,0.0,1.0,52,0.00,,,0.00,VWS V14.01,2013-09-21 10:25:00,
2013-09-21 03:28:00,73.4,54.7,29.69,WNW,286,2.0,2.0,52,0.00,,,0.00,VWS V14.01,2013-09-21 10:28:00,
2013-09-21 03:30:00,73.2,54.5,29.69,North,355,4.0,5.0,52,0.00,,,0.00,VWS V14.01,2013-09-21 10:30:00,
2013-09-21 03:33:00,72.5,53.9,29.70,NNW,332,2.0,5.0,52,0.00,,,0.00,VWS V14.01,2013-09-21 10:33:00,
2013-09-21 03:35:00,72.2,54.1,29.70,NNW,333,1.0,5.0,53,0.00,,,0.00,VWS V14.01,2013-09-21 10:35:00,
2013-09-21 03:38:00,71.6,54.1,29.70,NNW,342,1.0,3.0,54,0.00,,,0.00,VWS V14.01,2013-09-21 10:38:00,
2013-09-21 03:40:00,71.4,53.9,29.70,NNW,343,1.0,3.0,54,0.00,,,0.00,VWS V14.01,2013-09-21 10:40:00,
2013-09-21 03:43:00,70.9,54.0,29.70,NNW,342,0.0,5.0,55,0.00,,,0.00,VWS V14.01,2013-09-21 10:43:00,
2013-09-21 03:45:00,70.7,54.2,29.70,NW,326,3.0,5.0,56,0.00,,,0.00,VWS V14.01,2013-09-21 10:45:00,
2013-09-21 03:48:00,70.3,53.9,29.70,NW,313,2.0,4.0,56,0.00,,,0.00,VWS V14.01,2013-09-21 10:48:00,
2013-09-21 03:50:00,70.2,54.3,29.70,NW,313,2.0,4.0,57,0.00,,,0.00,VWS V14.01,2013-09-21 10:50:00,
2013-09-21 03:53:00,70.1,54.2,29.70,North,360,2.0,4.0,57,0.00,,,0.00,VWS V14.01,2013-09-21 10:53:00,
2013-09-21 03:55:00,70.1,54.2,29.70,NW,315,2.0,4.0,57,0.00,,,0.00,VWS V14.01,2013-09-21 10:55:00,
2013-09-21 03:58:00,70.0,54.1,29.70,NW,323,4.0,6.0,57,0.00,,,0.00,VWS V14.01,2013-09-21 10:58:00,
2013-09-21 04:00:00,69.9,54.0,29.70,NNW,346,2.0,6.0,57,0.00,,,0.00,VWS V14.01,2013-09-21 11:00:00,
2013-09-21 04:03:00,69.9,54.5,29.70,NNW,346,4.0,6.0,58,0.00,,,0.00,VWS V14.01,2013-09-21 11:03:00,
2013-09-21 04:05:00,69.9,54.5,29.70,NNW,348,5.0,7.0,58,0.00,,,0.00,VWS V14.01,2013-09-21 11:05:00,
2013-09-21 04:08:00,70.0,54.6,29.70,NNW,328,0.0,9.0,58,0.00,,,0.00,VWS V14.01,2013-09-21 11:08:00,
2013-09-21 04:10:00,70.0,54.1,29.70,NW,311,2.0,9.0,57,0.00,,,0.00,VWS V14.01,2013-09-21 11:10:00,
2013-09-21 04:13:00,70.0,54.6,29.70,NNW,331,5.0,6.0,58,0.00,,,0.00,VWS V14.01,2013-09-21 11:13:00,
2013-09-21 04:15:00,70.0,54.6,29.70,NW,324,5.0,6.0,58,0.00,,,0.00,VWS V14.01,2013-09-21 11:15:00,
2013-09-21 04:18:00,69.9,54.5,29.70,NW,323,3.0,7.0,58,0.00,,,0.00,VWS V14.01,2013-09-21 11:18:00,
2013-09-21 04:20:00,69.9,54.5,29.70,NNW,331,5.0,7.0,58,0.00,,,0.00,VWS V14.01,2013-09-21 11:20:00,
2013-09-21 04:23:00,69.9,54.5,29.70,North,355,5.0,6.0,58,0.00,,,0.00,VWS V14.01,2013-09-21 11:23:00,
2013-09-21 04:25:00,70.0,54.6,29.70,NNW,343,6.0,6.0,58,0.00,,,0.00,VWS V14.01,2013-09-21 11:25:00,
2013-09-21 04:28:00,70.1,54.7,29.70,NW,319,6.0,7.0,58,0.00,,,0.00,VWS V14.01,2013-09-21 11:28:00,
2013-09-21 04:30:00,70.2,54.8,29.70,NNW,339,2.0,7.0,58,0.00,,,0.00,VWS V14.01,2013-09-21 11:30:00,
2013-09-21 04:33:00,70.4,54.5,29.70,NNW,338,3.0,6.0,57,0.00,,,0.00,VWS V14.01,2013-09-21 11:33:00,
2013-09-21 04:35:00,70.4,54.5,29.70,NW,317,3.0,6.0,57,0.00,,,0.00,VWS V14.01,2013-09-21 11:35:00,
2013-09-21 04:38:00,70.5,54.5,29.70,NNW,346,6.0,7.0,57,0.00,,,0.00,VWS V14.01,2013-09-21 11:38:00,
2013-09-21 04:40:00,70.6,54.6,29.70,North,350,6.0,7.0,57,0.00,,,0.00,VWS V14.01,2013-09-21 11:40:00,
2013-09-21 04:43:00,70.7,54.7,29.70,North,351,6.0,8.0,57,0.00,,,0.00,VWS V14.01,2013-09-21 11:43:00,
2013-09-21 04:45:00,70.8,54.8,29.70,North,360,7.0,10.0,57,0.00,,,0.00,VWS V14.01,2013-09-21 11:45:00,
2013-09-21 04:48:00,71.1,54.6,29.70,NNW,335,6.0,7.0,56,0.00,,,0.00,VWS V14.01,2013-09-21 11:48:00,
2013-09-21 04:50:00,71.1,54.6,29.70,NNW,336,6.0,7.0,56,0.00,,,0.00,VWS V14.01,2013-09-21 11:50:00,
2013-09-21 04:53:00,71.3,54.8,29.70,North,355,5.0,9.0,56,0.00,,,0.00,VWS V14.01,2013-09-21 11:53:00,
2013-09-21 04:55:00,71.3,54.3,29.71,North,360,2.0,9.0,55,0.00,,,0.00,VWS V14.01,2013-09-21 11:55:00,
2013-09-21 04:58:00,71.4,54.4,29.71,North,5,3.0,5.0,55,0.00,,,0.00,VWS V14.01,2013-09-21 11:58:00,
2013-09-21 05:00:00,71.4,54.4,29.71,NNE,13,3.0,5.0,55,0.00,,,0.00,VWS V14.01,2013-09-21 12:00:00,
2013-09-21 05:03:00,71.2,54.2,29.71,North,5,3.0,5.0,55,0.00,,,0.00,VWS V14.01,2013-09-21 12:03:00,
2013-09-21 05:05:00,71.1,54.6,29.71,NNE,21,2.0,5.0,56,0.00,,,0.00,VWS V14.01,2013-09-21 12:05:00,
2013-09-21 05:08:00,70.9,54.4,29.71,NNW,342,3.0,5.0,56,0.00,,,0.00,VWS V14.01,2013-09-21 12:08:00,
2013-09-21 05:10:00,70.8,54.3,29.71,NNW,340,4.0,5.0,56,0.00,,,0.00,VWS V14.01,2013-09-21 12:10:00,
2013-09-21 05:13:00,70.9,54.4,29.71,North,350,1.0,5.0,56,0.00,,,0.00,VWS V14.01,2013-09-21 12:13:00,
2013-09-21 05:15:00,70.9,54.4,29.71,NNW,348,2.0,5.0,56,0.00,,,0.00,VWS V14.01,2013-09-21 12:15:00,
2013-09-21 05:18:00,71.2,54.7,29.71,North,355,1.0,4.0,56,0.00,,,0.00,VWS V14.01,2013-09-21 12:18:00,
2013-09-21 05:20:00,71.2,54.2,29.71,North,355,4.0,4.0,55,0.00,,,0.00,VWS V14.01,2013-09-21 12:20:00,
2013-09-21 05:23:00,71.1,54.6,29.71,North,355,2.0,4.0,56,0.00,,,0.00,VWS V14.01,2013-09-21 12:23:00,
2013-09-21 05:25:00,71.1,54.6,29.71,North,355,1.0,4.0,56,0.00,,,0.00,VWS V14.01,2013-09-21 12:25:00,
2013-09-21 05:28:00,70.9,54.4,29.71,North,355,0.0,2.0,56,0.00,,,0.00,VWS V14.01,2013-09-21 12:28:00,
2013-09-21 05:30:00,70.8,54.3,29.71,North,355,0.0,2.0,56,0.00,,,0.00,VWS V14.01,2013-09-21 12:30:00,
2013-09-21 05:33:00,70.4,54.5,29.71,North,355,0.0,2.0,57,0.00,,,0.00,VWS V14.01,2013-09-21 12:33:00,
2013-09-21 05:35:00,70.3,54.4,29.71,North,355,0.0,2.0,57,0.00,,,0.00,VWS V14.01,2013-09-21 12:35:00,
2013-09-21 05:38:00,70.1,54.7,29.71,North,355,0.0,2.0,58,0.00,,,0.00,VWS V14.01,2013-09-21 12:38:00,
2013-09-21 05:40:00,70.1,54.7,29.71,North,355,2.0,3.0,58,0.00,,,0.00,VWS V14.01,2013-09-21 12:40:00,
2013-09-21 05:43:00,70.1,54.7,29.71,NNW,346,2.0,3.0,58,0.00,,,0.00,VWS V14.01,2013-09-21 12:43:00,
2013-09-21 05:45:00,70.1,54.7,29.71,NNW,346,2.0,3.0,58,0.00,,,0.00,VWS V14.01,2013-09-21 12:45:00,
2013-09-21 05:48:00,70.1,54.7,29.71,NNW,345,4.0,4.0,58,0.00,,,0.00,VWS V14.01,2013-09-21 12:48:00,
2013-09-21 05:50:00,70.1,54.7,29.71,NNW,344,2.0,4.0,58,0.00,,,0.00,VWS V14.01,2013-09-21 12:50:00,
2013-09-21 05:53:00,70.2,54.8,29.71,NNW,348,3.0,4.0,58,0.00,,,0.00,VWS V14.01,2013-09-21 12:53:00,
2013-09-21 05:55:00,70.2,54.8,29.72,North,5,3.0,4.0,58,0.00,,,0.00,VWS V14.01,2013-09-21 12:55:00,
2013-09-21 05:58:00,70.3,54.8,29.71,NNE,13,3.0,5.0,58,0.00,,,0.00,VWS V14.01,2013-09-21 12:58:00,
2013-09-21 06:00:00,70.3,54.8,29.71,North,10,3.0,5.0,58,0.00,,,0.00,VWS V14.01,2013-09-21 13:00:00,
2013-09-21 06:03:00,70.2,54.8,29.72,North,355,2.0,5.0,58,0.00,,,0.00,VWS V14.01,2013-09-21 13:03:00,
2013-09-21 06:05:00,70.2,54.8,29.72,North,351,3.0,5.0,58,0.00,,,0.00,VWS V14.01,2013-09-21 13:05:00,
2013-09-21 06:08:00,70.2,54.8,29.72,North,5,0.0,5.0,58,0.00,,,0.00,VWS V14.01,2013-09-21 13:08:00,
2013-09-21 06:10:00,70.2,54.8,29.72,North,349,2.0,5.0,58,0.00,,,0.00,VWS V14.01,2013-09-21 13:10:00,
2013-09-21 06:13:00,70.2,55.2,29.72,NNW,340,3.0,5.0,59,0.00,,,0.00,VWS V14.01,2013-09-21 13:13:00,
2013-09-21 06:15:00,70.2,55.2,29.72,North,355,2.0,5.0,59,0.00,,,0.00,VWS V14.01,2013-09-21 13:15:00,
2013-09-21 06:18:00,70.3,55.3,29.73,NNW,344,2.0,4.0,59,0.00,,,0.00,VWS V14.01,2013-09-21 13:18:00,
2013-09-21 06:20:00,70.4,55.4,29.72,NNW,344,1.0,4.0,59,0.00,,,0.00,VWS V14.01,2013-09-21 13:20:00,
2013-09-21 06:23:00,70.7,55.2,29.72,NNW,344,0.0,3.0,58,0.00,,,0.00,VWS V14.01,2013-09-21 13:23:00,
2013-09-21 06:25:00,70.8,55.3,29.72,NNW,338,1.0,3.0,58,0.00,,,0.00,VWS V14.01,2013-09-21 13:25:00,
2013-09-21 06:28:00,71.0,55.5,29.72,NNW,333,1.0,4.0,58,0.00,,,0.00,VWS V14.01,2013-09-21 13:28:00,
2013-09-21 06:30:00,71.1,55.6,29.72,NNW,344,4.0,5.0,58,0.00,,,0.00,VWS V14.01,2013-09-21 13:30:00,
2013-09-21 06:33:00,71.4,55.4,29.73,NW,326,2.0,4.0,57,0.00,,,0.00,VWS V14.01,2013-09-21 13:33:00,
2013-09-21 06:35:00,71.5,55.5,29.73,NNW,334,2.0,4.0,57,0.00,,,0.00,VWS V14.01,2013-09-21 13:35:00,
2013-09-21 06:38:00,72.2,55.7,29.72,NNW,346,4.0,6.0,56,0.00,,,0.00,VWS V14.01,2013-09-21 13:38:00,
2013-09-21 06:40:00,72.4,55.8,29.72,NNW,348,4.0,6.0,56,0.00,,,0.00,VWS V14.01,2013-09-21 13:40:00,
2013-09-21 06:44:00,72.9,55.8,29.72,North,355,4.0,6.0,55,0.00,,,0.00,VWS V14.01,2013-09-21 13:44:00,
2013-09-21 06:45:00,73.0,55.9,29.72,North,5,5.0,6.0,55,0.00,,,0.00,VWS V14.01,2013-09-21 13:45:00,
2013-09-21 06:48:00,73.7,56.0,29.72,North,355,3.0,6.0,54,0.00,,,0.00,VWS V14.01,2013-09-21 13:48:00,
2013-09-21 06:50:00,73.8,56.1,29.72,NNE,18,5.0,6.0,54,0.00,,,0.00,VWS V14.01,2013-09-21 13:50:00,
2013-09-21 06:54:00,74.2,56.0,29.72,NNW,344,4.0,6.0,53,0.00,,,0.00,VWS V14.01,2013-09-21 13:54:00,
2013-09-21 06:55:00,74.3,56.1,29.72,North,360,5.0,6.0,53,0.00,,,0.00,VWS V14.01,2013-09-21 13:55:00,
2013-09-21 06:59:00,74.9,56.1,29.72,North,355,4.0,5.0,52,0.00,,,0.00,VWS V14.01,2013-09-21 13:59:00,
2013-09-21 07:00:00,75.1,56.3,29.72,North,355,4.0,7.0,52,0.00,,,0.00,VWS V14.01,2013-09-21 14:00:00,
2013-09-21 07:04:00,75.7,56.3,29.72,NNW,336,3.0,5.0,51,0.00,,,0.00,VWS V14.01,2013-09-21 14:04:00,
2013-09-21 07:05:00,75.8,56.4,29.72,NNW,327,4.0,5.0,51,0.00,,,0.00,VWS V14.01,2013-09-21 14:05:00,
2013-09-21 07:09:00,76.0,56.0,29.72,NNW,342,4.0,5.0,50,0.00,,,0.00,VWS V14.01,2013-09-21 14:09:00,
2013-09-21 07:10:00,76.1,56.1,29.72,NNW,341,3.0,5.0,50,0.00,,,0.00,VWS V14.01,2013-09-21 14:10:00,
2013-09-21 07:14:00,76.6,56.0,29.72,NNE,19,2.0,4.0,49,0.00,,,0.00,VWS V14.01,2013-09-21 14:14:00,
2013-09-21 07:15:00,76.6,56.0,29.72,North,5,3.0,4.0,49,0.00,,,0.00,VWS V14.01,2013-09-21 14:15:00,
2013-09-21 07:19:00,76.8,56.8,29.72,NNW,336,0.0,3.0,50,0.00,,,0.00,VWS V14.01,2013-09-21 14:19:00,
2013-09-21 07:20:00,77.0,56.4,29.72,NNW,344,2.0,3.0,49,0.00,,,0.00,VWS V14.01,2013-09-21 14:20:00,
2013-09-21 07:24:00,77.3,56.1,29.72,NNE,21,4.0,4.0,48,0.00,,,0.00,VWS V14.01,2013-09-21 14:24:00,
2013-09-21 07:25:00,77.4,56.2,29.72,NE,39,1.0,4.0,48,0.00,,,0.00,VWS V14.01,2013-09-21 14:25:00,
2013-09-21 07:29:00,77.8,56.6,29.72,NE,43,2.0,4.0,48,0.00,,,0.00,VWS V14.01,2013-09-21 14:29:00,
2013-09-21 07:30:00,78.0,56.2,29.72,NNE,32,2.0,4.0,47,0.00,,,0.00,VWS V14.01,2013-09-21 14:30:00,
2013-09-21 07:34:00,78.3,56.4,29.72,NNE,32,0.0,2.0,47,0.00,,,0.00,VWS V14.01,2013-09-21 14:34:00,
2013-09-21 07:35:00,78.4,56.5,29.72,NE,39,1.0,2.0,47,0.00,,,0.00,VWS V14.01,2013-09-21 14:35:00,
2013-09-21 07:39:00,79.3,56.1,29.72,ENE,76,1.0,1.0,45,0.00,,,0.00,VWS V14.01,2013-09-21 14:39:00,
2013-09-21 07:40:00,79.2,56.0,29.72,ENE,76,0.0,2.0,45,0.00,,,0.00,VWS V14.01,2013-09-21 14:40:00,
2013-09-21 07:44:00,79.2,56.0,29.72,ESE,112,0.0,4.0,45,0.00,,,0.00,VWS V14.01,2013-09-21 14:44:00,
2013-09-21 07:45:00,79.2,56.0,29.72,ESE,112,0.0,4.0,45,0.00,,,0.00,VWS V14.01,2013-09-21 14:45:00,
2013-09-21 07:49:00,79.7,55.9,29.72,ESE,112,1.0,2.0,44,0.00,,,0.00,VWS V14.01,2013-09-21 14:49:00,
2013-09-21 07:50:00,79.6,55.8,29.72,ESE,112,0.0,2.0,44,0.00,,,0.00,VWS V14.01,2013-09-21 14:50:00,
2013-09-21 07:54:00,79.6,56.4,29.72,SW,227,1.0,2.0,45,0.00,,,0.00,VWS V14.01,2013-09-21 14:54:00,
2013-09-21 07:55:00,79.7,55.9,29.72,South,173,1.0,4.0,44,0.00,,,0.00,VWS V14.01,2013-09-21 14:55:00,
2013-09-21 07:59:00,79.7,56.5,29.72,SSE,153,0.0,4.0,45,0.00,,,0.00,VWS V14.01,2013-09-21 14:59:00,
2013-09-21 08:00:00,79.8,56.0,29.72,SSE,153,0.0,4.0,44,0.00,,,0.00,VWS V14.01,2013-09-21 15:00:00,
2013-09-21 08:04:00,80.0,56.2,29.72,SSE,153,2.0,2.0,44,0.00,,,0.00,VWS V14.01,2013-09-21 15:04:00,
2013-09-21 08:05:00,80.3,55.8,29.72,SSE,153,1.0,2.0,43,0.00,,,0.00,VWS V14.01,2013-09-21 15:05:00,
2013-09-21 08:09:00,80.4,55.9,29.72,SSE,153,1.0,2.0,43,0.00,,,0.00,VWS V14.01,2013-09-21 15:09:00,
2013-09-21 08:10:00,80.4,55.9,29.72,SSE,153,1.0,2.0,43,0.00,,,0.00,VWS V14.01,2013-09-21 15:10:00,
2013-09-21 08:14:00,81.6,55.6,29.72,SSE,153,1.0,2.0,41,0.00,,,0.00,VWS V14.01,2013-09-21 15:14:00,
2013-09-21 08:15:00,81.6,55.6,29.72,SSE,153,0.0,2.0,41,0.00,,,0.00,VWS V14.01,2013-09-21 15:15:00,
2013-09-21 08:20:00,81.4,55.5,29.72,SSE,153,1.0,2.0,41,0.00,,,0.00,VWS V14.01,2013-09-21 15:20:00,
2013-09-21 08:24:00,81.4,55.5,29.72,SE,146,1.0,4.0,41,0.00,,,0.00,VWS V14.01,2013-09-21 15:24:00,
2013-09-21 08:25:00,81.6,55.6,29.72,SSE,168,1.0,4.0,41,0.00,,,0.00,VWS V14.01,2013-09-21 15:25:00,
2013-09-21 08:29:00,82.0,56.0,29.72,South,190,2.0,4.0,41,0.00,,,0.00,VWS V14.01,2013-09-21 15:29:00,
2013-09-21 08:30:00,82.3,55.6,29.72,SSE,156,2.0,5.0,40,0.00,,,0.00,VWS V14.01,2013-09-21 15:30:00,
2013-09-21 08:34:00,82.9,55.4,29.72,South,175,1.0,4.0,39,0.00,,,0.00,VWS V14.01,2013-09-21 15:34:00,
2013-09-21 08:35:00,82.9,55.4,29.72,South,176,0.0,4.0,39,0.00,,,0.00,VWS V14.01,2013-09-21 15:35:00,
2013-09-21 08:39:00,83.2,55.7,29.72,SE,140,1.0,6.0,39,0.00,,,0.00,VWS V14.01,2013-09-21 15:39:00,
2013-09-21 08:40:00,83.0,55.5,29.72,ESE,110,1.0,6.0,39,0.00,,,0.00,VWS V14.01,2013-09-21 15:40:00,
2013-09-21 08:44:00,83.9,56.3,29.72,SSW,195,1.0,3.0,39,0.00,,,0.00,VWS V14.01,2013-09-21 15:44:00,
2013-09-21 08:45:00,84.2,56.6,29.72,SSW,194,1.0,4.0,39,0.00,,,0.00,VWS V14.01,2013-09-21 15:45:00,
2013-09-21 08:49:00,85.0,56.6,29.72,SSE,164,0.0,4.0,38,0.00,,,0.00,VWS V14.01,2013-09-21 15:49:00,
2013-09-21 08:50:00,84.9,56.5,29.72,SSE,164,0.0,4.0,38,0.00,,,0.00,VWS V14.01,2013-09-21 15:50:00,
2013-09-21 08:54:00,85.0,56.6,29.72,SW,223,4.0,5.0,38,0.00,,,0.00,VWS V14.01,2013-09-21 15:54:00,
2013-09-21 08:55:00,85.0,56.6,29.72,SW,215,2.0,5.0,38,0.00,,,0.00,VWS V14.01,2013-09-21 15:55:00,
2013-09-21 08:59:00,85.3,56.8,29.72,WNW,303,3.0,5.0,38,0.00,,,0.00,VWS V14.01,2013-09-21 15:59:00,
2013-09-21 09:00:00,85.1,55.9,29.72,SW,217,2.0,5.0,37,0.00,,,0.00,VWS V14.01,2013-09-21 16:00:00,
2013-09-21 09:04:00,85.7,56.5,29.72,NW,306,2.0,7.0,37,0.00,,,0.00,VWS V14.01,2013-09-21 16:04:00,
2013-09-21 09:05:00,85.7,57.2,29.72,WNW,295,0.0,7.0,38,0.00,,,0.00,VWS V14.01,2013-09-21 16:05:00,
2013-09-21 09:09:00,86.1,56.8,29.72,SW,217,0.0,7.0,37,0.00,,,0.00,VWS V14.01,2013-09-21 16:09:00,
2013-09-21 09:10:00,86.2,56.9,29.72,SW,217,0.0,7.0,37,0.00,,,0.00,VWS V14.01,2013-09-21 16:10:00,
2013-09-21 09:14:00,86.7,56.6,29.72,SW,217,4.0,6.0,36,0.00,,,0.00,VWS V14.01,2013-09-21 16:14:00,
2013-09-21 09:15:00,86.7,56.6,29.72,SW,234,2.0,6.0,36,0.00,,,0.00,VWS V14.01,2013-09-21 16:15:00,
2013-09-21 09:19:00,86.9,56.8,29.72,SSW,210,3.0,9.0,36,0.00,,,0.00,VWS V14.01,2013-09-21 16:19:00,
2013-09-21 09:20:00,87.0,56.8,29.72,SSW,211,1.0,9.0,36,0.00,,,0.00,VWS V14.01,2013-09-21 16:20:00,
2013-09-21 09:24:00,87.7,57.5,29.72,SSW,199,3.0,5.0,36,0.00,,,0.00,VWS V14.01,2013-09-21 16:24:00,
2013-09-21 09:25:00,87.9,57.6,29.72,SSW,199,1.0,5.0,36,0.00,,,0.00,VWS V14.01,2013-09-21 16:25:00,
2013-09-21 09:29:00,88.3,58.0,29.72,West,269,3.0,5.0,36,0.00,,,0.00,VWS V14.01,2013-09-21 16:29:00,
2013-09-21 09:30:00,88.3,57.2,29.72,West,271,0.0,5.0,35,0.00,,,0.00,VWS V14.01,2013-09-21 16:30:00,
2013-09-21 09:34:00,87.9,57.6,29.72,SW,217,1.0,6.0,36,0.00,,,0.00,VWS V14.01,2013-09-21 16:34:00,
2013-09-21 09:35:00,88.2,57.9,29.72,SW,217,1.0,6.0,36,0.00,,,0.00,VWS V14.01,2013-09-21 16:35:00,
2013-09-21 09:39:00,88.9,56.9,29.71,West,271,1.0,9.0,34,0.00,,,0.00,VWS V14.01,2013-09-21 16:39:00,
2013-09-21 09:40:00,89.0,57.8,29.71,West,271,4.0,9.0,35,0.00,,,0.00,VWS V14.01,2013-09-21 16:40:00,
2013-09-21 09:44:00,88.3,57.2,29.71,SW,229,1.0,5.0,35,0.00,,,0.00,VWS V14.01,2013-09-21 16:44:00,
2013-09-21 09:45:00,88.3,58.0,29.71,SW,229,1.0,5.0,36,0.00,,,0.00,VWS V14.01,2013-09-21 16:45:00,
2013-09-21 09:49:00,89.5,56.6,29.71,WSW,238,0.0,6.0,33,0.00,,,0.00,VWS V14.01,2013-09-21 16:49:00,
2013-09-21 09:50:00,89.1,56.3,29.71,WSW,238,1.0,6.0,33,0.00,,,0.00,VWS V14.01,2013-09-21 16:50:00,
2013-09-21 09:54:00,89.6,56.7,29.71,SW,236,0.0,3.0,33,0.00,,,0.00,VWS V14.01,2013-09-21 16:54:00,
2013-09-21 09:55:00,89.9,57.0,29.71,SW,236,0.0,3.0,33,0.00,,,0.00,VWS V14.01,2013-09-21 16:55:00,
2013-09-21 09:59:00,91.3,56.5,29.71,SW,222,5.0,8.0,31,0.00,,,0.00,VWS V14.01,2013-09-21 16:59:00,
2013-09-21 10:00:00,91.6,56.7,29.71,SW,225,2.0,8.0,31,0.00,,,0.00,VWS V14.01,2013-09-21 17:00:00,
2013-09-21 10:05:00,91.2,56.4,29.71,WSW,244,8.0,8.0,31,0.00,,,0.00,VWS V14.01,2013-09-21 17:05:00,
2013-09-21 10:09:00,90.5,54.9,29.70,SW,217,7.0,10.0,30,0.00,,,0.00,VWS V14.01,2013-09-21 17:09:00,
2013-09-21 10:10:00,90.5,54.9,29.70,SW,223,2.0,10.0,30,0.00,,,0.00,VWS V14.01,2013-09-21 17:10:00,
2013-09-21 10:14:00,91.5,55.7,29.70,SW,216,3.0,7.0,30,0.00,,,0.00,VWS V14.01,2013-09-21 17:14:00,
2013-09-21 10:15:00,91.7,55.9,29.70,SW,216,0.0,7.0,30,0.00,,,0.00,VWS V14.01,2013-09-21 17:15:00,
2013-09-21 10:19:00,91.9,55.1,29.70,SSE,147,1.0,9.0,29,0.00,,,0.00,VWS V14.01,2013-09-21 17:19:00,
2013-09-21 10:20:00,91.8,56.0,29.70,SSE,151,2.0,9.0,30,0.00,,,0.00,VWS V14.01,2013-09-21 17:20:00,
2013-09-21 10:24:00,91.9,56.1,29.70,SSW,209,6.0,6.0,30,0.00,,,0.00,VWS V14.01,2013-09-21 17:24:00,
2013-09-21 10:25:00,92.1,56.2,29.70,SW,224,6.0,7.0,30,0.00,,,0.00,VWS V14.01,2013-09-21 17:25:00,
2013-09-21 10:29:00,93.3,55.4,29.70,SW,229,5.0,12.0,28,0.00,,,0.00,VWS V14.01,2013-09-21 17:29:00,
2013-09-21 10:30:00,93.3,55.4,29.70,SSW,199,5.0,12.0,28,0.00,,,0.00,VWS V14.01,2013-09-21 17:30:00,
2013-09-21 10:34:00,92.1,54.3,29.70,SSW,196,3.0,9.0,28,0.00,,,0.00,VWS V14.01,2013-09-21 17:34:00,
2013-09-21 10:35:00,92.1,54.3,29.70,South,190,5.0,9.0,28,0.00,,,0.00,VWS V14.01,2013-09-21 17:35:00,
2013-09-21 10:39:00,93.5,54.5,29.70,SSW,195,7.0,10.0,27,0.00,,,0.00,VWS V14.01,2013-09-21 17:39:00,
2013-09-21 10:40:00,93.4,54.5,29.70,South,186,3.0,10.0,27,0.00,,,0.00,VWS V14.01,2013-09-21 17:40:00,
2013-09-21 10:44:00,92.8,54.9,29.70,SSW,200,6.0,10.0,28,0.00,,,0.00,VWS V14.01,2013-09-21 17:44:00,
2013-09-21 10:45:00,92.7,54.8,29.70,South,188,5.0,10.0,28,0.00,,,0.00,VWS V14.01,2013-09-21 17:45:00,
2013-09-21 10:49:00,92.2,55.4,29.70,SW,221,3.0,10.0,29,0.00,,,0.00,VWS V14.01,2013-09-21 17:49:00,
2013-09-21 10:50:00,92.3,55.5,29.69,SW,225,6.0,10.0,29,0.00,,,0.00,VWS V14.01,2013-09-21 17:50:00,
2013-09-21 10:54:00,92.5,55.7,29.69,SSW,213,1.0,7.0,29,0.00,,,0.00,VWS V14.01,2013-09-21 17:54:00,
2013-09-21 10:55:00,92.5,55.7,29.69,South,186,3.0,7.0,29,0.00,,,0.00,VWS V14.01,2013-09-21 17:55:00,
2013-09-21 10:59:00,92.5,55.7,29.69,West,271,3.0,13.0,29,0.00,,,0.00,VWS V14.01,2013-09-21 17:59:00,
2013-09-21 11:00:00,92.4,55.6,29.69,West,270,0.0,13.0,29,0.00,,,0.00,VWS V14.01,2013-09-21 18:00:00,
2013-09-21 11:04:00,92.7,54.8,29.69,SSW,199,2.0,10.0,28,0.00,,,0.00,VWS V14.01,2013-09-21 18:04:00,
2013-09-21 11:05:00,92.7,54.8,29.69,South,188,3.0,10.0,28,0.00,,,0.00,VWS V14.01,2013-09-21 18:05:00,
2013-09-21 11:09:00,93.7,55.7,29.69,SW,234,3.0,10.0,28,0.00,,,0.00,VWS V14.01,2013-09-21 18:09:00,
2013-09-21 11:10:00,93.7,55.7,29.69,SW,234,1.0,10.0,28,0.00,,,0.00,VWS V14.01,2013-09-21 18:10:00,
2013-09-21 11:14:00,92.3,55.5,29.68,West,281,5.0,10.0,29,0.00,,,0.00,VWS V14.01,2013-09-21 18:14:00,
2013-09-21 11:15:00,92.2,55.4,29.68,WNW,290,0.0,10.0,29,0.00,,,0.00,VWS V14.01,2013-09-21 18:15:00,
2013-09-21 11:19:00,94.3,55.2,29.68,South,189,6.0,9.0,27,0.00,,,0.00,VWS V14.01,2013-09-21 18:19:00,
2013-09-21 11:20:00,94.4,55.3,29.68,SSW,199,3.0,9.0,27,0.00,,,0.00,VWS V14.01,2013-09-21 18:20:00,
2013-09-21 11:24:00,94.3,55.2,29.68,WSW,239,0.0,8.0,27,0.00,,,0.00,VWS V14.01,2013-09-21 18:24:00,
2013-09-21 11:25:00,94.4,55.3,29.68,SSW,201,11.0,11.0,27,0.00,,,0.00,VWS V14.01,2013-09-21 18:25:00,
2013-09-21 11:29:00,94.8,54.6,29.68,SSW,211,6.0,12.0,26,0.00,,,0.00,VWS V14.01,2013-09-21 18:29:00,
2013-09-21 11:30:00,94.6,54.4,29.68,SW,229,5.0,12.0,26,0.00,,,0.00,VWS V14.01,2013-09-21 18:30:00,
2013-09-21 11:34:00,94.8,54.6,29.68,SSW,207,5.0,11.0,26,0.00,,,0.00,VWS V14.01,2013-09-21 18:34:00,
2013-09-21 11:35:00,94.8,54.6,29.68,South,189,4.0,11.0,26,0.00,,,0.00,VWS V14.01,2013-09-21 18:35:00,
2013-09-21 11:39:00,94.7,54.5,29.68,SSW,198,10.0,14.0,26,0.00,,,0.00,VWS V14.01,2013-09-21 18:39:00,
2013-09-21 11:40:00,94.7,54.5,29.68,SW,225,11.0,14.0,26,0.00,,,0.00,VWS V14.01,2013-09-21 18:40:00,
2013-09-21 11:44:00,94.7,54.5,29.67,SW,223,10.0,12.0,26,0.00,,,0.00,VWS V14.01,2013-09-21 18:44:00,
2013-09-21 11:45:00,94.8,54.6,29.67,SW,222,12.0,12.0,26,0.00,,,0.00,VWS V14.01,2013-09-21 18:45:00,
2013-09-21 11:49:00,95.3,55.0,29.67,WSW,237,10.0,16.0,26,0.00,,,0.00,VWS V14.01,2013-09-21 18:49:00,
2013-09-21 11:50:00,95.2,54.9,29.67,SW,218,7.0,16.0,26,0.00,,,0.00,VWS V14.01,2013-09-21 18:50:00,
2013-09-21 11:54:00,95.4,55.1,29.67,SSW,207,10.0,12.0,26,0.00,,,0.00,VWS V14.01,2013-09-21 18:54:00,
2013-09-21 11:55:00,95.4,55.1,29.67,SSW,198,8.0,12.0,26,0.00,,,0.00,VWS V14.01,2013-09-21 18:55:00,
2013-09-21 11:59:00,95.1,55.9,29.67,SW,222,5.0,10.0,27,0.00,,,0.00,VWS V14.01,2013-09-21 18:59:00,
2013-09-21 12:00:00,95.1,55.9,29.67,SW,218,4.0,10.0,27,0.00,,,0.00,VWS V14.01,2013-09-21 19:00:00,
2013-09-21 12:04:00,94.5,55.4,29.66,SSW,212,7.0,15.0,27,0.00,,,0.00,VWS V14.01,2013-09-21 19:04:00,
2013-09-21 12:05:00,94.4,54.3,29.66,SSW,195,5.0,15.0,26,0.00,,,0.00,VWS V14.01,2013-09-21 19:05:00,
2013-09-21 12:09:00,93.5,53.5,29.66,SSW,211,2.0,10.0,26,0.00,,,0.00,VWS V14.01,2013-09-21 19:09:00,
2013-09-21 12:10:00,93.4,53.4,29.66,SSW,210,1.0,10.0,26,0.00,,,0.00,VWS V14.01,2013-09-21 19:10:00,
2013-09-21 12:14:00,94.0,53.9,29.66,SW,223,11.0,11.0,26,0.00,,,0.00,VWS V14.01,2013-09-21 19:14:00,
2013-09-21 12:15:00,93.9,53.8,29.66,South,188,15.0,15.0,26,0.00,,,0.00,VWS V14.01,2013-09-21 19:15:00,
2013-09-21 12:19:00,94.0,53.9,29.66,SW,225,8.0,15.0,26,0.00,,,0.00,VWS V14.01,2013-09-21 19:19:00,
2013-09-21 12:20:00,94.0,53.9,29.66,SW,217,9.0,15.0,26,0.00,,,0.00,VWS V14.01,2013-09-21 19:20:00,
2013-09-21 12:24:00,94.8,52.4,29.66,SSW,206,0.0,14.0,24,0.00,,,0.00,VWS V14.01,2013-09-21 19:24:00,
2013-09-21 12:25:00,94.8,52.4,29.65,WSW,257,1.0,14.0,24,0.00,,,0.00,VWS V14.01,2013-09-21 19:25:00,
2013-09-21 12:29:00,94.4,53.2,29.65,South,183,0.0,11.0,25,0.00,,,0.00,VWS V14.01,2013-09-21 19:29:00,
2013-09-21 12:30:00,94.3,53.1,29.65,South,184,5.0,11.0,25,0.00,,,0.00,VWS V14.01,2013-09-21 19:30:00,
2013-09-21 12:34:00,93.9,52.8,29.65,SW,217,5.0,14.0,25,0.00,,,0.00,VWS V14.01,2013-09-21 19:34:00,
2013-09-21 12:35:00,93.9,53.8,29.65,SW,222,4.0,14.0,26,0.00,,,0.00,VWS V14.01,2013-09-21 19:35:00,
2013-09-21 12:39:00,93.1,52.1,29.64,SSW,193,0.0,11.0,25,0.00,,,0.00,VWS V14.01,2013-09-21 19:39:00,
2013-09-21 12:40:00,93.1,53.2,29.64,SSW,193,1.0,11.0,26,0.00,,,0.00,VWS V14.01,2013-09-21 19:40:00,
2013-09-21 12:44:00,93.9,53.8,29.64,SSW,211,3.0,10.0,26,0.00,,,0.00,VWS V14.01,2013-09-21 19:44:00,
2013-09-21 12:45:00,94.0,53.9,29.64,South,182,3.0,10.0,26,0.00,,,0.00,VWS V14.01,2013-09-21 19:45:00,
2013-09-21 12:49:00,95.4,52.9,29.64,South,188,4.0,12.0,24,0.00,,,0.00,VWS V14.01,2013-09-21 19:49:00,
2013-09-21 12:50:00,95.4,52.9,29.64,South,190,4.0,12.0,24,0.00,,,0.00,VWS V14.01,2013-09-21 19:50:00,
2013-09-21 12:54:00,95.4,51.8,29.63,SSW,200,3.0,12.0,23,0.00,,,0.00,VWS V14.01,2013-09-21 19:54:00,
2013-09-21 12:55:00,95.3,51.7,29.64,SSW,202,1.0,12.0,23,0.00,,,0.00,VWS V14.01,2013-09-21 19:55:00,
2013-09-21 12:59:00,95.7,50.8,29.63,SSW,196,2.0,12.0,22,0.00,,,0.00,VWS V14.01,2013-09-21 19:59:00,
2013-09-21 13:00:00,95.6,50.7,29.63,South,190,6.0,12.0,22,0.00,,,0.00,VWS V14.01,2013-09-21 20:00:00,
2013-09-21 13:04:00,96.1,52.3,29.63,SW,223,10.0,13.0,23,0.00,,,0.00,VWS V14.01,2013-09-21 20:04:00,
2013-09-21 13:05:00,96.2,52.4,29.63,SW,219,13.0,13.0,23,0.00,,,0.00,VWS V14.01,2013-09-21 20:05:00,
2013-09-21 13:09:00,96.1,51.1,29.63,SW,236,3.0,18.0,22,0.00,,,0.00,VWS V14.01,2013-09-21 20:09:00,
2013-09-21 13:10:00,96.1,52.3,29.63,SW,224,5.0,18.0,23,0.00,,,0.00,VWS V14.01,2013-09-21 20:10:00,
2013-09-21 13:14:00,95.8,52.1,29.63,SSW,211,4.0,11.0,23,0.00,,,0.00,VWS V14.01,2013-09-21 20:14:00,
2013-09-21 13:15:00,95.9,52.2,29.63,SW,223,4.0,11.0,23,0.00,,,0.00,VWS V14.01,2013-09-21 20:15:00,
2013-09-21 13:19:00,94.7,51.2,29.62,WSW,254,1.0,5.0,23,0.00,,,0.00,VWS V14.01,2013-09-21 20:19:00,
2013-09-21 13:20:00,94.7,51.2,29.62,WSW,254,0.0,5.0,23,0.00,,,0.00,VWS V14.01,2013-09-21 20:20:00,
2013-09-21 13:24:00,94.4,50.9,29.62,SW,215,0.0,8.0,23,0.00,,,0.00,VWS V14.01,2013-09-21 20:24:00,
2013-09-21 13:25:00,94.4,50.9,29.62,SW,215,0.0,8.0,23,0.00,,,0.00,VWS V14.01,2013-09-21 20:25:00,
2013-09-21 13:29:00,95.6,51.9,29.62,SSE,154,6.0,7.0,23,0.00,,,0.00,VWS V14.01,2013-09-21 20:29:00,
2013-09-21 13:30:00,95.6,51.9,29.62,South,191,6.0,7.0,23,0.00,,,0.00,VWS V14.01,2013-09-21 20:30:00,
2013-09-21 13:34:00,95.6,53.1,29.61,South,171,5.0,10.0,24,0.00,,,0.00,VWS V14.01,2013-09-21 20:34:00,
2013-09-21 13:35:00,95.6,53.1,29.61,SSE,165,4.0,10.0,24,0.00,,,0.00,VWS V14.01,2013-09-21 20:35:00,
2013-09-21 13:40:00,94.5,53.3,29.61,South,189,8.0,12.0,25,0.00,,,0.00,VWS V14.01,2013-09-21 20:40:00,
2013-09-21 13:45:00,95.5,53.0,29.61,SW,227,8.0,13.0,24,0.00,,,0.00,VWS V14.01,2013-09-21 20:45:00,
2013-09-21 13:50:00,97.1,53.2,29.61,SW,233,8.0,12.0,23,0.00,,,0.00,VWS V14.01,2013-09-21 20:50:00,
2013-09-21 13:55:00,96.0,52.3,29.60,SW,217,4.0,12.0,23,0.00,,,0.00,VWS V14.01,2013-09-21 20:55:00,
2013-09-21 14:00:00,95.4,51.8,29.60,South,179,4.0,12.0,23,0.00,,,0.00,VWS V14.01,2013-09-21 21:00:00,
2013-09-21 14:05:00,94.3,52.0,29.60,South,187,4.0,7.0,24,0.00,,,0.00,VWS V14.01,2013-09-21 21:05:00,
2013-09-21 14:10:00,94.9,52.5,29.60,SSW,213,1.0,5.0,24,0.00,,,0.00,VWS V14.01,2013-09-21 21:10:00,
2013-09-21 14:15:00,95.0,51.4,29.60,ESE,121,5.0,9.0,23,0.00,,,0.00,VWS V14.01,2013-09-21 21:15:00,
2013-09-21 14:20:00,95.5,53.0,29.60,SW,225,9.0,11.0,24,0.00,,,0.00,VWS V14.01,2013-09-21 21:20:00,
2013-09-21 14:25:00,96.2,52.4,29.59,SSW,202,0.0,11.0,23,0.00,,,0.00,VWS V14.01,2013-09-21 21:25:00,
2013-09-21 14:30:00,96.3,51.3,29.59,SW,223,6.0,12.0,22,0.00,,,0.00,VWS V14.01,2013-09-21 21:30:00,
2013-09-21 14:35:00,96.3,51.3,29.59,SW,216,7.0,12.0,22,0.00,,,0.00,VWS V14.01,2013-09-21 21:35:00,
2013-09-21 14:40:00,96.0,51.1,29.58,SSW,206,7.0,13.0,22,0.00,,,0.00,VWS V14.01,2013-09-21 21:40:00,
2013-09-21 14:45:00,95.6,50.7,29.58,SW,215,3.0,9.0,22,0.00,,,0.00,VWS V14.01,2013-09-21 21:45:00,
2013-09-21 14:50:00,94.2,50.8,29.58,SSW,210,1.0,8.0,23,0.00,,,0.00,VWS V14.01,2013-09-21 21:50:00,
2013-09-21 14:55:00,93.3,51.2,29.58,SE,141,2.0,7.0,24,0.00,,,0.00,VWS V14.01,2013-09-21 21:55:00,
2013-09-21 15:00:00,93.6,50.3,29.58,South,185,10.0,12.0,23,0.00,,,0.00,VWS V14.01,2013-09-21 22:00:00,
2013-09-21 15:05:00,93.1,51.0,29.58,SSW,205,2.0,10.0,24,0.00,,,0.00,VWS V14.01,2013-09-21 22:05:00,
2013-09-21 15:10:00,94.0,51.8,29.57,SW,227,0.0,9.0,24,0.00,,,0.00,VWS V14.01,2013-09-21 22:10:00,
2013-09-21 15:15:00,94.3,50.8,29.57,SW,225,6.0,10.0,23,0.00,,,0.00,VWS V14.01,2013-09-21 22:15:00,
2013-09-21 15:20:00,95.0,50.2,29.57,SSW,194,5.0,8.0,22,0.00,,,0.00,VWS V14.01,2013-09-21 22:20:00,
2013-09-21 15:25:00,94.0,50.6,29.57,SSE,167,0.0,11.0,23,0.00,,,0.00,VWS V14.01,2013-09-21 22:25:00,
2013-09-21 15:30:00,94.4,50.9,29.57,SE,138,1.0,8.0,23,0.00,,,0.00,VWS V14.01,2013-09-21 22:30:00,
2013-09-21 15:35:00,93.0,50.9,29.57,SSW,192,8.0,9.0,24,0.00,,,0.00,VWS V14.01,2013-09-21 22:35:00,
2013-09-21 15:40:00,92.8,50.7,29.56,SW,229,3.0,9.0,24,0.00,,,0.00,VWS V14.01,2013-09-21 22:40:00,
2013-09-21 15:45:00,92.6,50.6,29.56,SSW,194,0.0,5.0,24,0.00,,,0.00,VWS V14.01,2013-09-21 22:45:00,
2013-09-21 15:50:00,92.5,50.5,29.56,SSW,212,1.0,4.0,24,0.00,,,0.00,VWS V14.01,2013-09-21 22:50:00,
2013-09-21 15:55:00,92.6,50.6,29.56,SW,226,6.0,10.0,24,0.00,,,0.00,VWS V14.01,2013-09-21 22:55:00,
2013-09-21 16:00:00,92.3,50.3,29.56,SSW,208,7.0,9.0,24,0.00,,,0.00,VWS V14.01,2013-09-21 23:00:00,
2013-09-21 16:05:00,92.0,50.1,29.56,SW,230,2.0,7.0,24,0.00,,,0.00,VWS V14.01,2013-09-21 23:05:00,
2013-09-21 16:10:00,92.0,50.1,29.56,South,169,2.0,9.0,24,0.00,,,0.00,VWS V14.01,2013-09-21 23:10:00,
2013-09-21 16:15:00,92.0,50.1,29.56,South,189,1.0,5.0,24,0.00,,,0.00,VWS V14.01,2013-09-21 23:15:00,
2013-09-21 16:20:00,92.1,50.2,29.56,SSE,153,6.0,6.0,24,0.00,,,0.00,VWS V14.01,2013-09-21 23:20:00,
2013-09-21 16:25:00,91.8,49.9,29.56,South,190,3.0,7.0,24,0.00,,,0.00,VWS V14.01,2013-09-21 23:25:00,
2013-09-21 16:30:00,91.7,49.8,29.56,South,181,2.0,6.0,24,0.00,,,0.00,VWS V14.01,2013-09-21 23:30:00,
2013-09-21 16:40:00,91.1,50.4,29.56,SSW,211,0.0,3.0,25,0.00,,,0.00,VWS V14.01,2013-09-21 23:40:00,
2013-09-21 16:45:00,90.9,50.2,29.56,SSW,209,1.0,8.0,25,0.00,,,0.00,VWS V14.01,2013-09-21 23:45:00,
2013-09-21 16:50:00,90.7,50.1,29.56,SSW,209,0.0,2.0,25,0.00,,,0.00,VWS V14.01,2013-09-21 23:50:00,
2013-09-21 17:00:00,90.5,51.0,29.56,SW,215,1.0,1.0,26,0.00,,,0.00,VWS V14.01,2013-09-22 00:00:00,
2013-09-21 17:05:00,90.7,50.1,29.56,SW,218,1.0,7.0,25,0.00,,,0.00,VWS V14.01,2013-09-22 00:05:00,
2013-09-21 17:08:00,91.3,50.6,29.56,SW,215,3.0,5.0,25,0.00,,,0.00,VWS V14.01,2013-09-22 00:08:00,
2013-09-21 17:10:00,90.6,50.0,29.56,SSW,204,1.0,2.0,25,0.00,,,0.00,VWS V14.01,2013-09-22 00:10:00,
2013-09-21 17:18:00,90.9,50.2,29.56,SSW,209,2.0,2.0,25,0.00,,,0.00,VWS V14.01,2013-09-22 00:18:00,
2013-09-21 17:20:00,90.3,50.8,29.56,SW,217,2.0,4.0,26,0.00,,,0.00,VWS V14.01,2013-09-22 00:20:00,
2013-09-21 17:23:00,90.7,50.1,29.56,SSW,209,0.0,0.0,25,0.00,,,0.00,VWS V14.01,2013-09-22 00:23:00,
2013-09-21 17:25:00,90.0,50.5,29.55,SW,225,1.0,1.0,26,0.00,,,0.00,VWS V14.01,2013-09-22 00:25:00,
2013-09-21 17:28:00,90.5,49.9,29.56,SSW,209,1.0,1.0,25,0.00,,,0.00,VWS V14.01,2013-09-22 00:28:00,
2013-09-21 17:30:00,89.8,50.4,29.55,SSW,197,3.0,4.0,26,0.00,,,0.00,VWS V14.01,2013-09-22 00:30:00,
2013-09-21 17:35:00,89.7,50.3,29.55,SSW,201,2.0,3.0,26,0.00,,,0.00,VWS V14.01,2013-09-22 00:35:00,
2013-09-21 17:38:00,90.7,50.1,29.56,SW,218,2.0,2.0,25,0.00,,,0.00,VWS V14.01,2013-09-22 00:38:00,
2013-09-21 17:40:00,89.5,52.1,29.55,SSW,213,4.0,4.0,28,0.00,,,0.00,VWS V14.01,2013-09-22 00:40:00,
2013-09-21 17:45:00,89.2,51.9,29.55,SW,221,0.0,5.0,28,0.00,,,0.00,VWS V14.01,2013-09-22 00:45:00,
2013-09-21 17:48:00,90.4,49.8,29.56,South,188,2.0,5.0,25,0.00,,,0.00,VWS V14.01,2013-09-22 00:48:00,
2013-09-21 17:50:00,89.0,52.7,29.55,West,279,1.0,3.0,29,0.00,,,0.00,VWS V14.01,2013-09-22 00:50:00,
2013-09-21 17:55:00,88.8,52.5,29.55,West,269,0.0,5.0,29,0.00,,,0.00,VWS V14.01,2013-09-22 00:55:00,
2013-09-21 17:58:00,90.0,50.5,29.55,SW,225,1.0,5.0,26,0.00,,,0.00,VWS V14.01,2013-09-22 00:58:00,
2013-09-21 18:00:00,88.5,53.1,29.55,WNW,284,1.0,4.0,30,0.00,,,0.00,VWS V14.01,2013-09-22 01:00:00,
2013-09-21 18:05:00,88.2,52.9,29.55,West,274,1.0,4.0,30,0.00,,,0.00,VWS V14.01,2013-09-22 01:05:00,
2013-09-21 18:10:00,88.1,52.8,29.55,WNW,296,4.0,4.0,30,0.00,,,0.00,VWS V14.01,2013-09-22 01:10:00,
2013-09-21 18:15:00,88.1,52.8,29.55,WNW,298,2.0,7.0,30,0.00,,,0.00,VWS V14.01,2013-09-22 01:15:00,
2013-09-21 18:20:00,88.2,52.9,29.55,NW,315,1.0,5.0,30,0.00,,,0.00,VWS V14.01,2013-09-22 01:20:00,
2013-09-21 18:25:00,88.1,52.8,29.55,WNW,289,0.0,6.0,30,0.00,,,0.00,VWS V14.01,2013-09-22 01:25:00,
2013-09-21 18:30:00,87.9,52.6,29.55,WNW,299,0.0,4.0,30,0.00,,,0.00,VWS V14.01,2013-09-22 01:30:00,
2013-09-21 18:35:00,87.7,52.5,29.55,WNW,299,1.0,3.0,30,0.00,,,0.00,VWS V14.01,2013-09-22 01:35:00,
2013-09-21 18:40:00,87.6,53.3,29.55,WNW,298,1.0,4.0,31,0.00,,,0.00,VWS V14.01,2013-09-22 01:40:00,
2013-09-21 18:45:00,87.5,53.2,29.55,WNW,300,0.0,4.0,31,0.00,,,0.00,VWS V14.01,2013-09-22 01:45:00,
2013-09-21 18:50:00,87.3,53.0,29.55,NW,311,0.0,3.0,31,0.00,,,0.00,VWS V14.01,2013-09-22 01:50:00,
2013-09-21 18:55:00,87.2,52.9,29.56,NW,312,0.0,1.0,31,0.00,,,0.00,VWS V14.01,2013-09-22 01:55:00,
2013-09-21 19:00:00,87.0,52.7,29.56,NW,311,0.0,1.0,31,0.00,,,0.00,VWS V14.01,2013-09-22 02:00:00,
2013-09-21 19:05:00,86.6,53.3,29.56,ESE,109,5.0,8.0,32,0.00,,,0.00,VWS V14.01,2013-09-22 02:05:00,
2013-09-21 19:10:00,86.2,53.8,29.56,SE,132,0.0,6.0,33,0.00,,,0.00,VWS V14.01,2013-09-22 02:10:00,
2013-09-21 19:15:00,85.9,54.3,29.56,SE,134,2.0,5.0,34,0.00,,,0.00,VWS V14.01,2013-09-22 02:15:00,
2013-09-21 19:20:00,86.0,54.4,29.56,East,91,4.0,6.0,34,0.00,,,0.00,VWS V14.01,2013-09-22 02:20:00,
2013-09-21 19:25:00,86.2,53.8,29.56,ESE,113,0.0,5.0,33,0.00,,,0.00,VWS V14.01,2013-09-22 02:25:00,
2013-09-21 19:30:00,86.2,53.8,29.56,ESE,113,0.0,2.0,33,0.00,,,0.00,VWS V14.01,2013-09-22 02:30:00,
2013-09-21 19:35:00,86.1,53.7,29.57,ESE,113,1.0,2.0,33,0.00,,,0.00,VWS V14.01,2013-09-22 02:35:00,
2013-09-21 19:40:00,86.0,53.6,29.57,ESE,113,0.0,1.0,33,0.00,,,0.00,VWS V14.01,2013-09-22 02:40:00,
2013-09-21 19:45:00,85.9,53.5,29.57,ESE,113,0.0,2.0,33,0.00,,,0.00,VWS V14.01,2013-09-22 02:45:00,
2013-09-21 19:50:00,85.7,54.9,29.58,SSW,198,2.0,8.0,35,0.00,,,0.00,VWS V14.01,2013-09-22 02:50:00,
2013-09-21 19:55:00,84.5,56.1,29.58,East,82,0.0,6.0,38,0.00,,,0.00,VWS V14.01,2013-09-22 02:55:00,
2013-09-21 20:00:00,83.7,56.8,29.58,ESE,109,2.0,7.0,40,0.00,,,0.00,VWS V14.01,2013-09-22 03:00:00,
2013-09-21 20:05:00,83.0,56.9,29.58,SSE,148,2.0,4.0,41,0.00,,,0.00,VWS V14.01,2013-09-22 03:05:00,
2013-09-21 20:10:00,82.3,57.6,29.58,SE,142,4.0,6.0,43,0.00,,,0.00,VWS V14.01,2013-09-22 03:10:00,
2013-09-21 20:15:00,81.8,57.1,29.58,East,94,0.0,6.0,43,0.00,,,0.00,VWS V14.01,2013-09-22 03:15:00,
2013-09-21 20:20:00,81.8,57.1,29.58,NE,36,1.0,5.0,43,0.00,,,0.00,VWS V14.01,2013-09-22 03:20:00,
2013-09-21 20:25:00,81.4,57.4,29.58,NNE,17,4.0,5.0,44,0.00,,,0.00,VWS V14.01,2013-09-22 03:25:00,
2013-09-21 20:30:00,81.2,57.2,29.58,NE,55,1.0,4.0,44,0.00,,,0.00,VWS V14.01,2013-09-22 03:30:00,
2013-09-21 20:35:00,81.3,57.3,29.58,ENE,77,0.0,3.0,44,0.00,,,0.00,VWS V14.01,2013-09-22 03:35:00,
2013-09-21 20:40:00,81.2,57.2,29.58,ENE,76,0.0,3.0,44,0.00,,,0.00,VWS V14.01,2013-09-22 03:40:00,
2013-09-21 20:45:00,81.0,57.7,29.58,ENE,76,0.0,1.0,45,0.00,,,0.00,VWS V14.01,2013-09-22 03:45:00,
2013-09-21 20:50:00,80.9,57.0,29.58,ENE,76,0.0,0.0,44,0.00,,,0.00,VWS V14.01,2013-09-22 03:50:00,
2013-09-21 20:55:00,81.0,57.1,29.59,ENE,76,0.0,1.0,44,0.00,,,0.00,VWS V14.01,2013-09-22 03:55:00,
2013-09-21 21:00:00,81.1,57.2,29.59,ENE,76,3.0,3.0,44,0.00,,,0.00,VWS V14.01,2013-09-22 04:00:00,
2013-09-21 21:05:00,81.1,56.5,29.59,ENE,76,0.0,3.0,43,0.00,,,0.00,VWS V14.01,2013-09-22 04:05:00,
2013-09-21 21:10:00,81.5,56.2,29.59,ENE,76,0.0,2.0,42,0.00,,,0.00,VWS V14.01,2013-09-22 04:10:00,
2013-09-21 21:15:00,81.5,55.5,29.59,ENE,76,0.0,3.0,41,0.00,,,0.00,VWS V14.01,2013-09-22 04:15:00,
2013-09-21 21:20:00,81.5,56.2,29.59,ENE,76,1.0,4.0,42,0.00,,,0.00,VWS V14.01,2013-09-22 04:20:00,
2013-09-21 21:25:00,81.3,56.0,29.59,ENE,76,0.0,3.0,42,0.00,,,0.00,VWS V14.01,2013-09-22 04:25:00,
2013-09-21 21:30:00,81.0,55.8,29.59,ENE,76,0.0,1.0,42,0.00,,,0.00,VWS V14.01,2013-09-22 04:30:00,
2013-09-21 21:35:00,81.0,55.8,29.59,ENE,76,0.0,0.0,42,0.00,,,0.00,VWS V14.01,2013-09-22 04:35:00,
2013-09-21 21:40:00,81.1,55.9,29.59,ENE,76,0.0,0.0,42,0.00,,,0.00,VWS V14.01,2013-09-22 04:40:00,
2013-09-21 21:41:00,81.0,55.8,29.59,ENE,76,0.0,0.0,42,0.00,,,0.00,VWS V14.01,2013-09-22 04:41:00,
2013-09-21 21:45:00,80.7,55.5,29.59,ENE,76,0.0,0.0,42,0.00,,,0.00,VWS V14.01,2013-09-22 04:45:00,
2013-09-21 21:46:00,80.7,55.5,29.59,ENE,76,0.0,0.0,42,0.00,,,0.00,VWS V14.01,2013-09-22 04:46:00,
2013-09-21 21:50:00,80.4,55.2,29.59,ENE,76,0.0,0.0,42,0.00,,,0.00,VWS V14.01,2013-09-22 04:50:00,
2013-09-21 21:51:00,80.4,55.9,29.59,ENE,76,0.0,0.0,43,0.00,,,0.00,VWS V14.01,2013-09-22 04:51:00,
2013-09-21 21:55:00,80.2,55.7,29.59,ENE,76,0.0,0.0,43,0.00,,,0.00,VWS V14.01,2013-09-22 04:55:00,
2013-09-21 21:56:00,80.2,55.7,29.59,ENE,76,0.0,0.0,43,0.00,,,0.00,VWS V14.01,2013-09-22 04:56:00,
2013-09-21 22:00:00,80.2,55.7,29.59,ENE,76,0.0,1.0,43,0.00,,,0.00,VWS V14.01,2013-09-22 05:00:00,
2013-09-21 22:01:00,80.2,55.7,29.59,ENE,76,0.0,0.0,43,0.00,,,0.00,VWS V14.01,2013-09-22 05:01:00,
2013-09-21 22:05:00,80.1,56.2,29.59,ENE,76,0.0,0.0,44,0.00,,,0.00,VWS V14.01,2013-09-22 05:05:00,
2013-09-21 22:06:00,80.0,56.2,29.59,ENE,76,0.0,2.0,44,0.00,,,0.00,VWS V14.01,2013-09-22 05:06:00,
2013-09-21 22:10:00,79.6,57.0,29.60,ENE,76,0.0,2.0,46,0.00,,,0.00,VWS V14.01,2013-09-22 05:10:00,
2013-09-21 22:11:00,79.5,57.5,29.59,ENE,76,0.0,0.0,47,0.00,,,0.00,VWS V14.01,2013-09-22 05:11:00,
2013-09-21 22:15:00,79.1,57.8,29.59,ENE,76,0.0,0.0,48,0.00,,,0.00,VWS V14.01,2013-09-22 05:15:00,
2013-09-21 22:16:00,79.0,57.1,29.59,ENE,76,0.0,0.0,47,0.00,,,0.00,VWS V14.01,2013-09-22 05:16:00,
2013-09-21 22:20:00,79.7,54.6,29.59,NNE,23,0.0,3.0,42,0.00,,,0.00,VWS V14.01,2013-09-22 05:20:00,
2013-09-21 22:21:00,79.9,54.8,29.59,NNE,23,2.0,2.0,42,0.00,,,0.00,VWS V14.01,2013-09-22 05:21:00,
2013-09-21 22:25:00,79.7,56.5,29.59,NNE,23,0.0,2.0,45,0.00,,,0.00,VWS V14.01,2013-09-22 05:25:00,
2013-09-21 22:26:00,79.4,56.2,29.59,NNE,23,0.0,0.0,45,0.00,,,0.00,VWS V14.01,2013-09-22 05:26:00,
2013-09-21 22:30:00,78.9,55.8,29.59,NNE,23,0.0,1.0,45,0.00,,,0.00,VWS V14.01,2013-09-22 05:30:00,
2013-09-21 22:31:00,78.9,55.2,29.59,NNE,23,0.0,1.0,44,0.00,,,0.00,VWS V14.01,2013-09-22 05:31:00,
2013-09-21 22:35:00,78.9,55.8,29.59,NNE,23,0.0,1.0,45,0.00,,,0.00,VWS V14.01,2013-09-22 05:35:00,
2013-09-21 22:36:00,78.8,55.7,29.59,NNE,23,0.0,0.0,45,0.00,,,0.00,VWS V14.01,2013-09-22 05:36:00,
2013-09-21 22:40:00,78.7,55.6,29.59,NNE,23,0.0,1.0,45,0.00,,,0.00,VWS V14.01,2013-09-22 05:40:00,
2013-09-21 22:41:00,78.6,54.9,29.59,NNE,23,0.0,0.0,44,0.00,,,0.00,VWS V14.01,2013-09-22 05:41:00,
2013-09-21 22:45:00,78.4,54.7,29.59,NNE,23,0.0,0.0,44,0.00,,,0.00,VWS V14.01,2013-09-22 05:45:00,
2013-09-21 22:46:00,78.4,54.7,29.59,NNE,23,0.0,0.0,44,0.00,,,0.00,VWS V14.01,2013-09-22 05:46:00,
2013-09-21 22:50:00,78.2,53.9,29.59,NNE,23,0.0,0.0,43,0.00,,,0.00,VWS V14.01,2013-09-22 05:50:00,
2013-09-21 22:51:00,78.1,53.8,29.59,NNE,23,0.0,0.0,43,0.00,,,0.00,VWS V14.01,2013-09-22 05:51:00,
2013-09-21 22:55:00,78.0,53.7,29.59,NNE,23,0.0,1.0,43,0.00,,,0.00,VWS V14.01,2013-09-22 05:55:00,
2013-09-21 22:56:00,78.2,53.9,29.59,NNE,23,0.0,0.0,43,0.00,,,0.00,VWS V14.01,2013-09-22 05:56:00,
2013-09-21 23:00:00,78.3,54.0,29.59,NNE,23,0.0,0.0,43,0.00,,,0.00,VWS V14.01,2013-09-22 06:00:00,
2013-09-21 23:01:00,78.3,54.0,29.59,NE,52,0.0,2.0,43,0.00,,,0.00,VWS V14.01,2013-09-22 06:01:00,
2013-09-21 23:05:00,78.1,54.4,29.59,NE,52,1.0,2.0,44,0.00,,,0.00,VWS V14.01,2013-09-22 06:05:00,
2013-09-21 23:06:00,78.1,54.4,29.59,NE,52,1.0,2.0,44,0.00,,,0.00,VWS V14.01,2013-09-22 06:06:00,
2013-09-21 23:10:00,78.0,55.0,29.59,ENE,59,1.0,2.0,45,0.00,,,0.00,VWS V14.01,2013-09-22 06:10:00,
2013-09-21 23:11:00,78.0,55.0,29.59,ENE,59,0.0,2.0,45,0.00,,,0.00,VWS V14.01,2013-09-22 06:11:00,
2013-09-21 23:15:00,77.9,55.5,29.59,ENE,59,0.0,2.0,46,0.00,,,0.00,VWS V14.01,2013-09-22 06:15:00,
2013-09-21 23:16:00,77.9,54.9,29.59,ENE,59,0.0,1.0,45,0.00,,,0.00,VWS V14.01,2013-09-22 06:16:00,
2013-09-21 23:20:00,77.9,54.9,29.59,East,96,1.0,2.0,45,0.00,,,0.00,VWS V14.01,2013-09-22 06:20:00,
2013-09-21 23:21:00,77.9,54.9,29.59,East,96,1.0,1.0,45,0.00,,,0.00,VWS V14.01,2013-09-22 06:21:00,
2013-09-21 23:25:00,77.9,56.1,29.59,East,96,0.0,1.0,47,0.00,,,0.00,VWS V14.01,2013-09-22 06:25:00,
2013-09-21 23:26:00,77.8,56.0,29.59,East,96,0.0,0.0,47,0.00,,,0.00,VWS V14.01,2013-09-22 06:26:00,
2013-09-21 23:30:00,77.6,55.8,29.59,East,96,0.0,1.0,47,0.00,,,0.00,VWS V14.01,2013-09-22 06:30:00,
2013-09-21 23:31:00,77.6,55.8,29.59,East,96,1.0,2.0,47,0.00,,,0.00,VWS V14.01,2013-09-22 06:31:00,
2013-09-21 23:35:00,77.3,56.1,29.59,East,96,0.0,2.0,48,0.00,,,0.00,VWS V14.01,2013-09-22 06:35:00,
2013-09-21 23:36:00,77.2,56.6,29.59,East,96,0.0,1.0,49,0.00,,,0.00,VWS V14.01,2013-09-22 06:36:00,
2013-09-21 23:40:00,76.9,56.3,29.59,East,96,0.0,1.0,49,0.00,,,0.00,VWS V14.01,2013-09-22 06:40:00,
2013-09-21 23:41:00,76.6,56.6,29.59,East,96,0.0,0.0,50,0.00,,,0.00,VWS V14.01,2013-09-22 06:41:00,
2013-09-21 23:45:00,76.1,57.2,29.59,East,96,0.0,0.0,52,0.00,,,0.00,VWS V14.01,2013-09-22 06:45:00,
2013-09-21 23:46:00,76.0,57.1,29.59,East,96,0.0,0.0,52,0.00,,,0.00,VWS V14.01,2013-09-22 06:46:00,
2013-09-21 23:50:00,75.8,57.5,29.59,East,96,0.0,1.0,53,0.00,,,0.00,VWS V14.01,2013-09-22 06:50:00,
2013-09-21 23:51:00,75.8,58.0,29.59,East,95,0.0,1.0,54,0.00,,,0.00,VWS V14.01,2013-09-22 06:51:00,
2013-09-21 23:55:00,75.8,58.0,29.59,East,95,0.0,1.0,54,0.00,,,0.00,VWS V14.01,2013-09-22 06:55:00,
2013-09-21 23:56:00,75.7,57.9,29.59,East,95,1.0,1.0,54,0.00,,,0.00,VWS V14.01,2013-09-22 06:56:00,